Content
SEND FEEDBACK

Daily
Averages
Monthly
Summary
United States of America

SILVER CREEK, NEW YORK


Home > North America > United States > New York
Elevation: 582 feet     Latitude: 42 33N     Longitude: 079 09W

WEATHER
 
SELECT A DAY
Number of Records: 202,927;   Date Range: 12/11/96 - 8/28/14
 
SHARE

PRINT THIS DATA

[ ← Previous Day ]
WEATHER ALMANAC - FEBRUARY 3, 2014
[ Next Day → ]
[ °C ]   °F
Weather ElementAverageHighLow
Temperature19 °F24.1 °F (2:53 pm) (1:53 pm)
Dewpoint14.3 °F19 °F (8:53 am) (7:00 pm)
Humidity81.8 %89 % (8:53 am)60 % (2:53 pm)
Barometer30.28 in30.37 in (10:53 pm)30.19 in (6:34 am)
Wind Speed7.2 mph13.8 mph (10:42 am)
Wind Gust18.4 mph (9:53 am)
Weather ElementAverage
Visibility6.5 mi
Wind DirectionESE (109.7 °)

Weather ElementTotal
Precipitation---
Heating Degree Days53 (Base 65)
Averaged from 31 records on February 3, 2014
WEATHER CONDITIONS BREAKOUT
WIND DIRECTION BREAKOUT
WEATHER BY HOUR - FEBRUARY 3, 2014
[ °C ]   °F
Local TimeTemperatureDewpointHumidityBarometerVisibilityWind DirectionWind SpeedGust SpeedPrecipitationEventsConditions
1:53 AM21.9 °F16.0 °F78 %30.25 in10.0 miNW (310°)5.8 mphOvercast
2:53 AM21.9 °F16.0 °F78 %30.26 in8.0 miNorth (350°)4.6 mphOvercast
3:53 AM21.9 °F16.0 °F78 %30.25 in10.0 miNorth (350°)5.8 mphOvercast
4:53 AM21.9 °F16.0 °F78 %30.24 in9.0 miNorth (10°)4.6 mphOvercast
5:53 AM21.9 °F16.0 °F78 %30.25 in10.0 miNorth (360°)5.8 mph0.00 inOvercast
6:34 AM21.2 °F17.6 °F86 %30.19 in9.0 miNNE (30°)4.6 mphOvercast
6:53 AM21.9 °F17.1 °F82 %30.24 in7.0 miNNE (20°)5.8 mphOvercast
7:53 AM21.9 °F18.0 °F85 %30.26 in4.0 miNorth (10°)8.1 mph0.00 inSnowLight Snow
8:29 AM21.2 °F17.6 °F86 %30.25 in2.5 miNorth (10°)4.6 mph0.00 inSnowLight Snow
8:53 AM21.9 °F19.0 °F89 %30.28 in2.0 miNorth (360°)4.6 mph0.00 inSnowLight Snow
9:26 AM21.2 °F17.6 °F86 %30.25 in2.5 miNNE (30°)10.4 mph0.00 inSnowLight Snow
9:40 AM21.2 °F17.6 °F86 %30.25 in1.8 miNNE (30°)12.7 mph17.3 mph0.00 inSnowLight Snow
9:46 AM21.2 °F17.6 °F86 %30.26 in2.0 miNE (40°)8.1 mph0.00 inSnowLight Snow
9:53 AM21.9 °F18.0 °F85 %30.30 in1.5 miNNE (30°)12.7 mph18.4 mph0.00 inSnowLight Snow
10:11 AM21.2 °F17.6 °F86 %30.27 in2.5 miNE (40°)10.4 mph0.00 inSnowLight Snow
10:25 AM21.2 °F17.6 °F86 %30.27 in2.0 miNNE (20°)10.4 mph0.00 inSnowLight Snow
10:32 AM23.0 °F17.6 °F80 %30.27 in2.5 miNNE (20°)12.7 mph0.00 inSnowLight Snow
10:42 AM21.2 °F17.6 °F86 %30.28 in3.0 miNNE (30°)13.8 mph0.00 inSnowLight Snow
10:49 AM21.2 °F17.6 °F86 %30.27 in2.5 miNNE (30°)13.8 mph0.00 inSnowLight Snow
10:53 AM21.9 °F16.0 °F78 %30.31 in3.0 miNNE (20°)13.8 mph0.00 inSnowLight Snow
12:53 PM23.0 °F15.1 °F72 %30.27 in10.0 miNNE (30°)10.4 mph
1:53 PM0.0 °F0.0 °F30.27 inNorth
2:53 PM24.1 °F12.0 °F60 %30.27 in10.0 miNorth (10°)5.8 mph
3:53 PM24.1 °F12.9 °F62 %30.29 in10.0 miNNW (340°)6.9 mphClear
5:53 PM19.9 °F12.9 °F74 %30.32 in10.0 miCalmClear
6:53 PM15.1 °F12.0 °F88 %30.35 in10.0 miCalmClear
7:53 PM12.0 °F9.0 °F88 %30.35 in10.0 miSouth (170°)3.5 mphClear
8:53 PM10.0 °F7.0 °F87 %30.35 in10.0 miSouth (180°)4.6 mphClear
9:53 PM9.0 °F6.1 °F88 %30.35 in10.0 miSouth (190°)3.5 mphClear
10:53 PM9.0 °F5.0 °F84 %30.37 in10.0 miSSW (200°)3.5 mphClear
11:53 PM9.0 °F6.1 °F88 %30.37 in10.0 miSouth (180°)4.6 mphClear
Hourly data recorded from KDKK, located miles away from Silver Creek, New York







STORIES FROM OUR PARTNERS